Douglas, WY

1:18 PM MDT on October 20, 2017 (GMT -0600)
Converse County

Weather History for KDGW - November, 2012

Change the Weather History Date:

Saturday, November 10, 2012

  Actual Average Record
Temperature  
Mean Temperature 22 °F 36 °F  
Max Temperature 32 °F 50 °F 74 °F (2005)
Min Temperature 11 °F 22 °F 7 °F (2000)
Degree Days  
Heating Degree Days 43 29  
Month to date heating degree days 227 270  
Since 1 July heating degree days 997 1137  
Cooling Degree Days 0 0  
Month to date cooling degree days 0 0  
Year to date cooling degree days 831 486  
Moisture  
Dew Point 19 °F    
Average Humidity 87    
Maximum Humidity 100    
Minimum Humidity 73    
Precipitation  
Precipitation T in 0.03 in 0.09 in (2014)
Month to date precipitation T 0.27  
Year to date precipitation 5.08 12.61  
Sea Level Pressure  
Sea Level Pressure 29.73 in    
Wind  
Wind Speed 14 mph (NNW)    
Max Wind Speed 23 mph    
Max Gust Speed 29 mph    
Visibility 8 miles    
Events Snow    
T = Trace of Precipitation, MM = Missing Value Source: NWS Daily Summary

Daily Weather History Graph

Daily Weather History Graph

Search for Another Location

Airport or City:

Trip Planner

Search our weather history database for the weather conditions in past years. The results will help you decide how hot, cold, wet, or windy it might be!

Date:

Astronomy

Nov. 10, 2012 Rise Set
Actual Time 6:47 AM MST 4:42 PM MST
Civil Twilight 6:17 AM MST 5:12 PM MST
Nautical Twilight 5:43 AM MST 5:46 PM MST
Astronomical Twilight 5:10 AM MST 6:20 PM MST
Moon 2:51 AM MST (11/10) 2:35 PM MST (11/10)
Length of Visible Light 10h 55m
Length of Day
9h 54m
Waning Crescent, 14% of the Moon is Illuminated
Nov 10
Waning Crescent
Nov 13
New
Nov 20
First Quarter
Nov 28
Full
Dec 6
Last Quarter

Hourly Weather History & Observations

Time (MST) Temp. Windchill Dew Point Humidity Pressure Visibility Wind Dir Wind Speed Gust Speed Precip Events Conditions
12:32 AM 32.0 °F 25.6 °F 30.2 °F 93% 29.57 in 10.0 mi North 6.9 mph - N/A   Overcast
12:39 AM 32.0 °F 24.2 °F 30.2 °F 93% 29.60 in 10.0 mi NW 9.2 mph - N/A   Overcast
12:53 AM 32.0 °F 25.6 °F 30.9 °F 96% 29.60 in 9.0 mi NW 6.9 mph - N/A   Overcast
1:16 AM 32.0 °F 24.2 °F 30.2 °F 93% 29.57 in 2.0 mi North 9.2 mph - N/A   Overcast
1:33 AM 32.0 °F 24.8 °F 30.2 °F 93% 29.56 in 7.0 mi NE 8.1 mph - N/A   Overcast
1:53 AM 32.0 °F 23.0 °F 30.9 °F 96% 29.55 in 10.0 mi NNE 11.5 mph - N/A   Overcast
2:53 AM 30.9 °F 23.5 °F 30.0 °F 96% 29.55 in 10.0 mi North 8.1 mph 20.7 mph N/A   Overcast
3:35 AM 30.2 °F 18.9 °F 28.4 °F 93% 29.58 in 10.0 mi North 16.1 mph - N/A   Overcast
3:53 AM 30.0 °F 19.1 °F 27.0 °F 88% 29.60 in 10.0 mi North 15.0 mph - N/A   Overcast
4:45 AM 28.4 °F 17.5 °F 26.6 °F 93% 29.63 in 2.5 mi NNW 13.8 mph - 0.00 in Snow Light Snow
4:49 AM 28.4 °F 17.0 °F 26.6 °F 93% 29.63 in 1.8 mi NNW 15.0 mph - 0.00 in Snow Light Snow
4:53 AM 28.0 °F 17.5 °F 26.1 °F 92% 29.65 in 1.5 mi NNW 12.7 mph - 0.00 in Snow Light Snow
5:22 AM 26.6 °F 14.3 °F 24.8 °F 93% 29.61 in 3.0 mi NW 16.1 mph - 0.00 in Snow Light Snow
5:48 AM 26.6 °F 18.2 °F 24.8 °F 93% 29.62 in 9.0 mi NW 8.1 mph - 0.00 in Snow Light Snow
5:53 AM 27.0 °F 15.6 °F 24.1 °F 89% 29.65 in 9.0 mi NW 13.8 mph 19.6 mph 0.00 in Snow Light Snow
6:01 AM 26.6 °F 16.2 °F 23.0 °F 86% 29.62 in 9.0 mi NW 11.5 mph - 0.00 in Snow Light Snow
6:21 AM 24.8 °F 14.0 °F 21.2 °F 86% 29.62 in 10.0 mi NNW 11.5 mph - 0.00 in   Overcast
6:33 AM 26.6 °F 19.1 °F 21.2 °F 80% 29.63 in 10.0 mi NW 6.9 mph - 0.00 in   Overcast
6:51 AM 24.8 °F 14.6 °F 21.2 °F 86% 29.62 in 10.0 mi NW 10.4 mph - 0.00 in   Overcast
6:53 AM 25.0 °F 15.5 °F 21.0 °F 85% 29.67 in 10.0 mi NNW 9.2 mph - 0.00 in   Overcast
7:53 AM 23.0 °F 10.6 °F 19.9 °F 88% 29.70 in 9.0 mi NW 13.8 mph - 0.00 in Snow Light Snow
8:38 AM 21.2 °F 8.3 °F 19.4 °F 93% 29.64 in 9.0 mi NNW 13.8 mph 23.0 mph 0.00 in   Overcast
8:53 AM 21.9 °F 8.7 °F 19.0 °F 89% 29.72 in 10.0 mi NW 15.0 mph - 0.00 in   Overcast
9:53 AM 21.0 °F 7.1 °F 18.0 °F 88% 29.73 in 10.0 mi NNW 16.1 mph 24.2 mph N/A   Overcast
10:53 AM 19.9 °F 6.2 °F 16.0 °F 85% 29.76 in - NNW 15.0 mph - N/A   Overcast
11:53 AM 19.9 °F 5.7 °F 16.0 °F 85% 29.78 in - NNW 16.1 mph 24.2 mph 0.00 in   Overcast
12:53 PM 19.9 °F 4.8 °F 15.1 °F 81% 29.78 in - NNW 18.4 mph - 0.00 in Snow Light Snow
1:39 PM 19.4 °F 3.6 °F 14.0 °F 80% 29.69 in - NNW 19.6 mph - 0.00 in Snow Light Snow
1:53 PM 19.9 °F 4.3 °F 14.0 °F 78% 29.80 in - NW 19.6 mph 26.5 mph 0.00 in Snow Light Snow
2:53 PM 19.0 °F 2.7 °F 12.9 °F 77% 29.84 in - NW 20.7 mph - 0.00 in Snow Light Snow
3:46 PM 17.6 °F 0.9 °F 10.4 °F 73% 29.75 in - NW 20.7 mph - 0.00 in   Overcast
3:53 PM 18.0 °F 1.3 °F 10.9 °F 74% 29.87 in - NW 20.7 mph 25.3 mph 0.00 in Snow Light Snow
4:53 PM 16.0 °F 0.1 °F 10.0 °F 77% 29.95 in - NNW 17.3 mph - 0.00 in   Overcast
5:53 PM 15.1 °F -0.1 °F 9.0 °F 77% 29.98 in - NW 15.0 mph - 0.00 in Snow Light Snow
6:35 PM 15.8 °F 1.4 °F 8.6 °F 73% 29.86 in - NW 13.8 mph - N/A   Overcast
6:53 PM 15.1 °F -1.1 °F 8.1 °F 74% 30.02 in - NW 17.3 mph - 0.00 in Snow Light Snow
7:53 PM 12.9 °F -2.2 °F 7.0 °F 77% 30.02 in - NW 13.8 mph - 0.00 in   Overcast
9:25 PM 12.2 °F -3.1 °F 6.8 °F 79% 29.88 in - NNW 13.8 mph - 0.00 in Snow Light Snow
9:53 PM - - - N/A% 29.88 in - NNW 10.4 mph - 0.00 in   Overcast
10:53 PM 12.0 °F 0.5 °F 6.1 °F 77% 30.07 in - NNW 8.1 mph - N/A   Overcast
11:53 PM 10.9 °F 1.4 °F 5.0 °F 77% 30.06 in - NNW 5.8 mph - N/A   Mostly Cloudy